Theta_e
302 302 302 302 302 302 302 302 302 301 303 304 306 309 307 305 303 303 304 306 303 308 310 312 313 315 317 317 313 313 309 311 313 313 313 316 317 320 322 328 354 353 339 349 347
302 302 302 302 302 302 302 302 302 302 304 305 306 308 308 307 307 306 312 311 310 310 310 312 312 314 315 317 316 309 309 311 313 314 314 314 316 318 322 352 351 350 348 348 345
302 301 301 301 301 302 302 302 303 303 305 306 305 307 307 307 307 311 312 311 311 311 310 310 311 313 312 314 316 312 311 312 314 316 317 316 317 319 320 350 351 350 347 344 344
301 301 301 301 302 302 302 302 302 303 304 306 307 308 308 308 307 314 314 311 312 316 311 311 311 311 311 312 315 314 315 313 313 315 317 316 318 317 319 320 345 348 348 345 344
301 301 301 302 302 304 304 303 303 303 305 307 308 308 308 307 308 312 317 308 312 317 314 311 312 311 309 311 313 315 315 316 314 315 315 316 316 316 318 320 341 349 348 348 345
301 301 301 302 305 306 307 305 304 305 306 307 309 308 308 309 308 309 308 309 309 313 314 313 312 310 311 310 311 315 314 316 318 314 315 315 315 317 318 321 345 349 349 347 344
301 301 301 302 307 308 309 309 309 308 308 307 308 308 308 308 308 308 309 309 310 312 310 309 311 313 315 316 316 317 313 314 316 317 313 316 315 316 318 324 346 345 347 345 340
301 302 302 303 308 310 311 311 311 310 308 309 309 309 309 308 309 309 307 309 309 309 309 311 311 314 315 316 317 317 314 316 316 315 315 316 315 316 319 329 345 344 343 344 348
302 302 303 305 310 312 313 312 313 312 311 309 308 307 308 308 309 310 308 308 308 310 310 310 311 313 314 316 317 316 315 316 317 315 314 315 315 316 318 331 344 347 349 349 351
302 303 303 309 311 313 313 312 310 312 311 310 309 309 310 311 311 310 310 309 308 309 309 309 312 312 312 315 318 318 315 315 317 315 314 314 314 316 319 321 330 344 348 348 346
303 304 308 312 313 313 313 311 310 311 309 310 309 309 310 311 310 310 308 309 308 308 307 308 312 312 312 315 317 319 318 316 316 316 315 314 314 316 317 319 319 335 343 343 342
304 306 312 313 313 313 313 311 309 309 308 310 309 309 309 310 310 311 310 310 310 310 307 307 311 312 312 314 317 320 321 320 316 315 314 313 315 315 317 318 319 323 338 341 340
304 309 312 313 313 313 313 311 310 310 307 309 310 310 310 310 310 311 310 310 311 310 309 309 308 310 313 312 314 317 320 321 318 316 316 316 317 317 317 318 319 324 326 346 347
306 312 313 313 314 314 313 313 312 311 305 314 312 312 311 310 311 310 311 310 310 311 311 310 309 309 310 312 313 318 318 321 321 317 316 316 316 315 315 317 318 321 326 343 349
308 313 314 314 314 315 314 314 309 309 315 313 315 314 313 313 311 310 310 310 310 312 311 310 310 308 309 312 312 317 318 320 321 318 316 316 315 317 316 316 316 315 323 340 347
312 313 315 314 315 315 314 314 310 308 314 314 314 314 313 313 313 312 312 310 310 311 310 310 310 311 310 311 313 315 317 319 318 316 317 316 315 315 316 317 316 317 321 332 345
313 314 315 315 315 315 315 314 309 315 314 316 315 313 313 313 313 314 312 311 310 311 311 311 310 311 311 312 312 314 317 321 318 317 318 315 317 314 318 316 317 317 321 329 344
313 315 315 314 315 315 315 311 315 316 316 314 314 312 313 314 312 315 314 313 312 310 311 311 309 311 311 311 315 314 317 324 322 322 316 316 317 317 317 317 320 321 323 326 339
312 316 314 314 314 315 314 309 317 315 314 316 313 313 316 315 312 311 314 313 312 311 311 312 312 311 312 314 314 317 320 319 315 315 317 315 318 317 317 317 317 318 321 322 330
313 317 312 314 315 315 311 316 316 315 315 311 314 314 317 315 314 313 312 312 313 311 310 313 313 314 317 317 316 318 319 318 316 317 317 315 316 317 316 316 317 317 317 322 328
311 316 311 313 314 314 309 316 315 315 315 313 312 312 314 315 314 314 314 313 312 311 311 313 312 314 317 318 319 321 321 318 314 316 315 316 317 315 316 316 317 317 321 337 338
310 310 311 313 312 311 307 312 315 315 315 313 309 309 311 314 315 316 314 314 312 311 313 314 315 318 317 316 317 319 319 316 314 321 320 315 320 327 316 317 318 326 336 337 338
310 312 309 310 307 308 310 313 314 315 316 315 313 312 312 314 316 316 316 314 312 313 315 315 313 317 317 316 317 320 319 316 317 320 324 323 327 333 317 320 333 335 336 335 334
310 306 310 309 309 310 309 311 312 314 315 315 315 314 315 315 316 317 315 317 316 318 316 314 316 317 313 321 320 321 320 319 317 321 323 331 340 334 331 335 334 334 334 332 330
306 306 308 305 307 307 308 309 312 314 315 315 316 317 318 311 312 316 317 318 316 317 315 315 316 317 318 318 320 319 319 319 319 320 322 335 337 336 334 334 333 332 330 327 324
308 308 309 308 308 307 308 309 311 312 314 314 315 315 317 319 319 320 319 318 318 316 315 313 315 319 318 319 321 321 317 319 319 321 331 334 336 331 331 332 332 330 328 323 321
308 309 309 307 305 305 306 308 310 311 312 313 315 313 316 317 317 317 318 318 317 316 314 314 313 319 321 320 320 318 316 322 323 323 331 333 332 330 331 331 330 328 323 321 320
Wind_Speed
24 24 24 23 23 23 24 25 22 19 18 18 18 19 21 21 21 21 20 13 11 8 15 7 13 12 11 8 17 13 3 8 10 10 5 13 3 11 13 16 7 9 35 33 36
25 25 25 26 25 25 25 24 23 20 18 19 18 18 18 19 21 24 3 10 9 1 11 11 8 3 5 6 10 7 7 8 4 5 6 10 8 18 4 4 10 24 30 46 39
28 28 29 29 28 26 26 25 22 22 20 20 17 16 17 20 22 6 8 11 12 10 11 17 12 10 5 10 7 5 8 12 4 16 22 19 11 15 6 3 26 35 39 48 40
30 30 30 30 29 29 27 25 22 20 20 18 15 13 16 17 5 8 7 7 7 10 3 13 12 5 3 5 5 5 4 17 9 21 22 12 12 11 19 17 25 42 52 45 37
31 32 32 32 32 29 24 22 20 19 17 15 14 9 14 8 18 11 11 7 5 3 3 11 11 7 5 3 7 10 6 14 18 31 34 21 15 10 25 31 28 49 52 51 46
31 32 33 34 28 23 23 20 17 15 14 13 12 7 10 11 6 1 9 5 11 10 7 9 8 15 9 9 5 6 10 14 24 26 29 15 10 12 30 30 40 51 51 49 49
31 32 33 31 22 24 24 20 19 17 13 11 7 7 16 25 11 11 12 11 11 14 12 14 13 12 3 5 11 12 10 10 12 24 14 3 9 18 34 13 37 38 46 44 36
33 34 32 26 23 25 17 19 19 14 8 6 4 6 11 10 8 6 11 15 13 13 6 10 11 5 2 7 8 3 3 4 6 13 9 10 13 15 23 16 28 35 30 34 31
35 34 29 19 23 18 17 16 13 10 3 3 1 6 11 9 6 7 5 16 14 9 3 4 10 3 1 2 5 3 4 8 6 8 5 13 9 16 18 14 19 31 34 35 28
37 32 23 19 20 18 18 15 19 5 1 1 1 5 9 3 13 11 2 5 10 10 5 4 1 3 1 4 9 6 5 5 13 6 12 11 11 7 12 13 17 24 37 37 31
36 26 18 19 15 20 17 11 12 3 8 11 9 15 22 14 14 5 5 8 8 4 3 5 2 9 9 9 13 10 10 7 6 9 7 14 5 11 8 5 14 25 27 35 33
31 19 19 18 14 18 13 5 7 9 12 19 23 27 30 11 11 10 5 7 7 4 3 1 14 8 8 12 13 13 13 13 11 8 6 8 10 9 6 4 13 23 27 26 27
23 16 21 19 12 16 15 7 8 15 3 12 5 8 8 10 15 16 8 9 4 4 6 9 5 13 13 11 13 14 11 12 10 6 8 7 2 5 5 6 8 22 26 31 35
17 14 22 20 14 16 9 18 16 15 3 10 1 5 6 5 7 16 16 12 4 8 2 8 10 15 13 15 14 12 13 14 15 8 8 9 6 5 6 4 6 17 25 27 37
14 15 17 21 22 21 20 23 8 2 3 13 4 8 13 14 11 2 11 14 8 7 4 5 6 13 15 14 13 9 10 12 13 12 5 5 6 10 5 6 7 8 24 31 31
10 17 16 19 24 24 19 19 4 5 5 8 7 16 12 8 7 8 5 5 2 6 1 9 11 4 8 14 15 11 10 13 11 6 7 8 6 5 8 15 5 5 22 26 33
13 13 17 19 19 21 20 12 4 5 10 9 14 14 14 5 6 8 14 4 5 5 5 11 16 8 10 5 8 12 10 3 4 4 5 8 9 7 16 7 8 9 18 25 37
14 13 16 14 15 14 19 5 5 4 5 11 11 19 4 5 4 3 5 12 9 4 1 3 6 11 12 9 5 9 5 3 5 5 5 9 8 9 12 13 20 23 25 22 37
17 9 15 15 17 18 16 5 5 4 11 10 15 4 1 3 3 4 4 4 7 16 6 3 5 4 9 12 13 6 7 11 2 1 7 4 2 7 7 9 11 20 27 23 26
15 5 18 20 11 22 5 1 4 5 7 1 4 4 4 8 3 3 2 3 4 9 13 2 4 2 12 17 10 10 8 6 2 8 7 3 5 7 10 10 11 13 18 18 27
14 4 16 13 9 16 2 3 5 20 5 2 3 4 5 4 4 3 6 3 8 3 7 4 3 7 8 7 7 5 5 4 0 6 5 6 7 6 9 12 14 12 24 35 38
12 2 15 14 8 4 3 8 6 13 4 2 1 2 4 5 5 4 4 3 13 7 6 5 3 4 2 5 16 11 2 2 3 3 2 5 3 8 9 16 19 22 32 38 47
16 6 13 16 3 4 8 7 4 6 7 1 4 7 5 3 4 7 5 4 13 3 6 5 2 3 2 5 6 6 6 5 2 1 1 5 4 9 9 17 33 34 36 38 45
9 4 9 9 11 2 6 6 12 11 4 10 4 5 5 5 3 7 2 5 2 7 8 4 3 4 3 2 5 6 5 6 4 1 4 1 9 7 22 25 27 37 40 40 40
12 4 5 5 7 11 5 7 11 12 3 14 3 15 9 2 4 7 3 1 3 4 3 4 0 2 4 7 2 6 10 6 4 5 5 9 19 9 20 26 30 40 40 41 38
7 7 6 10 17 9 5 8 11 13 4 12 9 17 8 3 5 9 6 2 1 0 2 2 2 2 1 10 3 10 7 5 5 2 9 15 13 3 12 35 36 37 40 37 37
11 12 7 7 8 4 4 8 16 14 10 20 10 8 7 10 18 23 16 14 4 5 2 1 2 3 4 8 5 4 5 6 5 4 8 12 8 7 15 17 32 36 37 40 39
Wind_Direction
357 353 348 345 340 338 335 331 326 320 314 314 314 317 318 323 315 311 302 301 270 224 206 236 218 208 210 245 211 209 201 221 216 204 249 280 334 265 327 220 117 172 168 170 154
356 351 345 345 339 333 332 328 325 322 315 315 312 315 322 329 317 305 11 69 47 260 230 233 229 226 237 238 214 187 211 227 207 231 264 280 252 285 330 28 98 118 147 151 164
352 350 347 344 338 332 327 325 323 319 315 312 312 317 328 332 321 137 93 40 12 347 255 225 237 288 244 241 227 213 230 233 280 248 267 271 306 320 291 196 154 142 151 156 164
349 347 345 341 336 330 322 318 317 312 310 306 305 320 323 318 309 165 191 10 38 357 224 197 221 251 251 221 252 280 260 245 281 278 266 272 300 305 295 269 204 165 161 157 167
348 347 345 342 338 335 328 316 310 305 308 302 302 313 308 293 262 238 231 287 93 64 47 186 218 223 253 265 331 248 284 276 253 257 267 281 280 297 289 294 196 168 165 167 176
348 347 346 345 343 347 348 338 320 307 303 303 294 308 284 265 320 24 211 241 221 246 236 200 217 206 262 246 203 278 310 286 259 259 262 259 294 287 281 295 183 169 168 171 175
348 348 345 343 342 340 337 331 324 313 306 296 285 277 267 260 303 271 253 252 209 232 264 248 248 246 214 308 303 307 274 280 257 244 256 229 268 246 262 274 154 163 177 182 184
348 347 342 339 338 338 348 337 326 309 309 298 282 244 255 325 318 350 221 235 215 217 285 252 246 230 266 305 330 293 203 241 248 226 241 184 253 257 261 216 168 158 168 178 175
347 347 344 340 341 351 351 345 321 322 316 338 112 214 261 319 343 351 36 223 213 232 267 276 243 188 2 30 331 246 249 227 294 202 209 184 232 246 249 172 153 153 165 174 166
347 347 348 346 347 351 351 341 350 320 91 63 139 249 264 322 336 314 173 85 218 253 300 261 318 149 74 152 220 216 209 247 221 201 200 218 233 264 171 159 161 165 168 168 164
349 354 3 355 351 349 345 10 353 356 306 245 243 248 276 271 302 271 189 177 175 192 185 274 206 219 210 232 247 273 286 271 286 240 161 214 230 226 189 171 158 179 175 178 180
352 3 5 8 353 350 352 16 357 323 304 290 266 256 264 277 296 269 246 159 174 202 201 268 229 220 231 243 253 256 265 269 286 239 178 176 224 236 169 166 182 169 179 177 181
356 4 6 5 360 349 343 337 309 317 281 295 234 232 265 202 223 257 212 172 174 215 218 233 272 218 237 270 261 242 247 255 249 255 201 126 272 205 216 174 171 187 172 156 170
2 8 6 11 1 342 329 321 305 321 51 359 288 10 21 232 220 249 228 194 160 203 290 256 238 233 227 235 248 245 237 249 267 266 203 171 207 250 218 195 161 191 170 158 160
6 3 3 356 349 338 341 347 334 150 56 329 348 318 348 315 315 281 192 199 204 153 114 254 258 211 224 228 231 239 240 247 272 259 161 149 112 227 110 217 210 201 180 157 170
9 4 350 345 344 343 331 333 324 45 347 339 313 329 306 292 265 267 201 220 153 123 174 245 257 254 219 228 229 235 308 267 265 225 222 180 129 222 211 210 135 171 185 159 166
355 1 345 340 326 328 321 330 30 60 324 319 317 320 318 287 273 244 238 215 184 171 236 253 245 218 196 227 226 199 263 250 162 156 194 185 164 212 219 158 164 166 183 159 170
342 353 346 343 347 316 321 21 41 348 267 300 314 314 213 1 317 308 218 227 213 227 318 278 314 183 177 201 119 193 205 248 114 149 155 166 201 212 195 157 177 182 175 156 175
350 360 347 358 23 359 350 37 330 322 294 306 320 285 287 57 353 330 258 217 193 195 190 252 240 151 158 145 135 187 199 221 304 116 127 194 147 125 127 155 163 171 167 157 175
7 7 11 3 4 355 42 262 285 256 306 290 312 327 313 346 312 262 260 206 222 179 200 114 302 258 123 105 158 228 335 190 242 163 130 191 162 183 176 173 171 169 158 135 136
9 27 9 348 336 346 77 229 248 337 331 249 296 292 307 303 292 292 276 254 198 127 113 114 91 302 138 157 191 174 240 231 77 178 147 140 201 203 171 164 168 159 131 118 117
357 14 352 0 26 345 329 301 338 332 356 144 280 254 253 301 306 293 243 265 185 143 137 159 153 275 323 73 182 273 261 201 133 107 55 118 297 311 190 171 145 119 119 119 123
345 315 335 8 49 323 307 303 303 324 333 271 236 216 257 274 301 262 237 176 131 108 160 174 150 282 51 43 31 286 268 212 266 327 157 126 249 328 153 127 122 119 119 118 116
2 1 340 352 358 343 319 318 338 356 334 329 268 266 252 321 275 303 346 42 143 119 112 112 158 213 172 171 176 223 228 232 193 116 171 142 121 57 120 119 120 120 122 120 119
19 8 12 309 326 326 305 342 337 347 5 346 307 340 335 102 308 310 334 173 35 39 81 145 124 252 175 242 309 207 272 188 134 196 93 145 117 108 124 123 125 124 121 118 119
23 353 318 284 296 322 359 334 334 342 308 333 353 337 320 300 290 308 324 288 162 162 66 349 213 293 75 260 141 247 250 173 76 80 95 127 105 131 113 119 125 127 126 122 125
357 351 302 290 323 356 315 317 320 337 312 332 334 332 311 321 308 282 253 264 282 155 142 72 125 44 273 142 223 316 230 116 59 52 138 147 144 142 130 129 133 128 126 127 128